Showing default

RIDESHARE ADAPTER, 47435

Orbit data source: Space-Track

RIDESHARE ADAPTER, 47435 is a payload satellite owned by SpaceX (US) in SSO that was launched on Sun, 24 Jan 2021 UTC via an FALCON 9 launch vehicle from the Air Force Eastern Test Range (AFETR). Payload-class satellites include a variety of spacecraft equipped with specific instruments for various scientific and technological missions. These include communications satellites like Starlink; space stations such as the ISS; scientific satellites like the Hubble; Earth observation satellites from companies like Planet Labs, Umbra, and HawkEye 360; GPS; miniature CubeSats for education and research; and military/defense satellites.

Loading next visibility...
Identifier
47435, 2021-006Y
Orbit
SSO
Country
Flag of USUS
Related business
Manufacturer
SpaceX
Mission
Non-operational Commercial Technology
Bus & Motor
ESPA, Unknown motor
Mass
~500 kg wet, ~500 kg dry
Launch date (UTC)
2021-01-24 (6 years ago)
Launch vehicle
FALCON 9
Launch site
Air Force Eastern Test Range (AFETR)
Object type
Payload
Rocket body
Debris
Shape & HBR
Cyl, 4.1 m
Radar Cross Section
11.058 m², Large (>1 m²)

Expand to show TLE details & history
Last TLE update: 5 hours ago

TLE from 5 hours ago
0 RIDESHARE ADAPTER
1 47435U 21006Y   26255.27560922  .00009990  00000-0  19037-3 0  9995
2 47435  97.2117 309.0639 0006388 187.0423 173.0740 15.48359644313617
Epoch: 2026-09-12T06:36Z
TLE epoch observation values (Epoch: 2026-09-12T06:36:52.636Z)
Latitude
0.00003°
Longitude
-141.44237°
Altitude
428.971 km
Speed
7.652 km/s
True Right ascension
20h 36m 15s
True Declination
0° 00' 00"
Sunlit
Object was in full shadow at epoch
Visualization orbit readout
Latitude
Unknown
Longitude
Unknown
Altitude
Unknown
Speed
Unknown
Apparent Right ascension
Unknown
Apparent Declination
Unknown
Sunlit
N/A
Visualization observer readout
Local Sidereal Time
04:24:49
Azimuth
Unknown
Elevation
Unknown
Doppler factor
Unknown
Orbital elements
Apogee altitude
422.786 km
Perigee altitude
414.102 km
Semi-major axis
6,796.581 km
Eccentricity
0.00064
Inclination
97.2117°
RAAN
309.0639°
Arg. of periapsis
187.0423°
True anomaly
173.08282°
Mean anomaly
173.074°
Eccentric anomaly
173.07841°
Mean motion
3.87353 °/min
Orbital period
92.94 mins
BSTAR
0.00019037
Loading maneuver chart data...
Computing Atmospheric mass density...
Loading historical data...
Loading historical data...
Loading historical data...
Loading historical data...
Loading historical data...
Loading historical data...
Loading historical data...

Documentation

Showing up to 5 results
|